• In Russia
  • List of Countries
  • For 7 days
  • Water Temperature
  • Satellite Maps
  • Weather Map
  • Weather Widgets
  • user-avatar
    Login

    Hourly Weather Holoy

    Today, 24 September, Monday

    Time Temperature Precipitation Wind Pressure Humidity
    00:00 +1°C° 0 mm 1 mps 606 mmHg 80%
    01:00 +2°C° 0 mm 1 mps 606 mmHg 78%
    02:00 +2°C° 0 mm 1 mps 606 mmHg 78%
    03:00 +2°C° 0 mm 1 mps 606 mmHg 79%
    04:00 +2°C° 0 mm 1 mps 606 mmHg 79%
    05:00 +2°C° 0 mm 1 mps 606 mmHg 78%
    06:00 +2°C° 0 mm 1 mps 606 mmHg 78%
    07:00 +3°C° 0 mm 1 mps 607 mmHg 78%
    08:00 +5°C° 0 mm 1 mps 607 mmHg 70%
    09:00 +7°C° 0 mm 1 mps 608 mmHg 63%
    10:00 +9°C° 0 mm 1 mps 608 mmHg 56%
    11:00 +10°C° 0 mm 1 mps 608 mmHg 54%
    12:00 +10°C° 0 mm 1 mps 608 mmHg 52%
    13:00 +11°C° 0 mm 1 mps 608 mmHg 51%
    14:00 +10°C° 0.1 mm 1 mps 608 mmHg 54%
    15:00 +10°C° 0.1 mm 1 mps 608 mmHg 58%
    16:00 +9°C° 0.1 mm 1 mps 607 mmHg 61%
    17:00 +7°C° 0 mm 1 mps 607 mmHg 69%
    18:00 +5°C° 0 mm 1 mps 606 mmHg 77%
    19:00 +2°C° 0 mm 1 mps 605 mmHg 86%
    20:00 +2°C° 0 mm 1 mps 605 mmHg 86%
    21:00 +2°C° 0 mm 1 mps 605 mmHg 85%
    22:00 +1°C° 0 mm 1 mps 605 mmHg 85%
    23:00 +1°C° 0 mm 1 mps 605 mmHg 85%

    Tomorrow, 25 September, Tuesday

    Time Temperature Precipitation Wind Pressure Humidity
    00:00 +1°C° 0 mm 1 mps 605 mmHg 84%
    01:00 +1°C° 0 mm 1 mps 605 mmHg 84%
    02:00 +1°C° 0 mm 1 mps 605 mmHg 84%
    03:00 +1°C° 0 mm 1 mps 605 mmHg 84%
    04:00 0°C° 0 mm 1 mps 605 mmHg 84%
    05:00 +1°C° 0 mm 1 mps 605 mmHg 83%
    06:00 +1°C° 0 mm 1 mps 606 mmHg 82%
    07:00 +2°C° 0 mm 1 mps 606 mmHg 81%
    08:00 +4°C° 0 mm 1 mps 607 mmHg 73%
    09:00 +7°C° 0 mm 1 mps 607 mmHg 66%
    10:00 +10°C° 0 mm 1 mps 608 mmHg 58%
    11:00 +9°C° 0 mm 2 mps 608 mmHg 55%
    12:00 +10°C° 0 mm 2 mps 608 mmHg 52%
    13:00 +12°C° 0 mm 2 mps 608 mmHg 49%
    14:00 +12°C° 0 mm 2 mps 607 mmHg 52%
    15:00 +10°C° 0 mm 2 mps 607 mmHg 56%
    16:00 +9°C° 0 mm 2 mps 607 mmHg 59%
    17:00 +8°C° 0 mm 1 mps 606 mmHg 67%
    18:00 +6°C° 0 mm 1 mps 605 mmHg 74%
    19:00 +4°C° 0 mm 1 mps 604 mmHg 82%
    20:00 +4°C° 0 mm 1 mps 604 mmHg 83%
    21:00 +3°C° 0 mm 1 mps 604 mmHg 84%
    22:00 +3°C° 0 mm 1 mps 604 mmHg 85%
    23:00 +2°C° 0 mm 1 mps 604 mmHg 87%

    Day after tomorrow, 26 September, Wednesday

    Time Temperature Precipitation Wind Pressure Humidity
    00:00 +2°C° 0 mm 1 mps 604 mmHg 88%
    01:00 +2°C° 0 mm 1 mps 604 mmHg 90%
    02:00 +2°C° 0 mm 1 mps 604 mmHg 91%
    03:00 +2°C° 0 mm 1 mps 604 mmHg 93%
    04:00 +2°C° 0 mm 1 mps 604 mmHg 94%
    05:00 +2°C° 0.2 mm 1 mps 604 mmHg 95%
    06:00 +2°C° 0.2 mm 1 mps 604 mmHg 96%
    07:00 +2°C° 0.2 mm 1 mps 605 mmHg 96%
    08:00 +1°C° 1.2 mm 2 mps 605 mmHg 96%
    09:00 +1°C° 1.2 mm 2 mps 604 mmHg 95%
    10:00 +1°C° 1.2 mm 2 mps 604 mmHg 95%
    11:00 +1°C° 1.2 mm 2 mps 604 mmHg 94%
    12:00 +1°C° 1.2 mm 2 mps 604 mmHg 94%
    13:00 -1°C° 1.2 mm 2 mps 604 mmHg 94%
    14:00 -1°C° 0.9 mm 2 mps 604 mmHg 93%
    15:00 -1°C° 0.9 mm 2 mps 604 mmHg 93%
    16:00 +1°C° 0.9 mm 1 mps 604 mmHg 92%
    17:00 0°C° 0.4 mm 1 mps 604 mmHg 93%
    18:00 0°C° 0.4 mm 1 mps 604 mmHg 93%
    19:00 0°C° 0.4 mm 1 mps 604 mmHg 93%
    20:00 -1°C° 0 mm 1 mps 604 mmHg 93%
    21:00 -1°C° 0 mm 1 mps 604 mmHg 93%
    22:00 -2°C° 0 mm 1 mps 604 mmHg 93%
    23:00 -2°C° 0.2 mm 1 mps 603 mmHg 93%

    27 September, Thursday

    Time Temperature Precipitation Wind Pressure Humidity
    00:00 -2°C° 0.2 mm 1 mps 603 mmHg 93%
    01:00 -3°C° 0.2 mm 1 mps 603 mmHg 93%
    02:00 -4°C° 0.7 mm 2 mps 604 mmHg 94%
    03:00 -5°C° 0.7 mm 3 mps 604 mmHg 94%
    04:00 -5°C° 0.7 mm 3 mps 604 mmHg 95%
    05:00 -5°C° 0.3 mm 3 mps 605 mmHg 94%
    06:00 -6°C° 0.3 mm 3 mps 605 mmHg 93%
    07:00 -6°C° 0.3 mm 3 mps 605 mmHg 92%
    08:00 -6°C° 0.1 mm 3 mps 606 mmHg 88%
    09:00 -5°C° 0.1 mm 3 mps 606 mmHg 83%
    10:00 -4°C° 0.1 mm 3 mps 606 mmHg 79%
    11:00 -4°C° 0.2 mm 3 mps 606 mmHg 79%
    12:00 -4°C° 0.2 mm 3 mps 606 mmHg 78%
    13:00 -2°C° 0.2 mm 3 mps 606 mmHg 78%
    14:00 -2°C° 0.2 mm 3 mps 606 mmHg 79%
    15:00 -2°C° 0.2 mm 2 mps 606 mmHg 80%
    16:00 -2°C° 0.2 mm 2 mps 606 mmHg 81%
    17:00 -3°C° 0.1 mm 2 mps 606 mmHg 86%
    18:00 -2°C° 0.1 mm 1 mps 606 mmHg 90%
    19:00 -3°C° 0.1 mm 1 mps 606 mmHg 94%
    20:00 -4°C° 0 mm 1 mps 606 mmHg 95%
    21:00 -4°C° 0 mm 1 mps 606 mmHg 95%
    22:00 -4°C° 0 mm 1 mps 606 mmHg 95%
    23:00 -4°C° 0 mm 1 mps 606 mmHg 95%

    28 September, Friday

    Time Temperature Precipitation Wind Pressure Humidity
    00:00 -4°C° 0 mm 1 mps 606 mmHg 94%
    01:00 -4°C° 0 mm 1 mps 606 mmHg 94%
    02:00 -4°C° 0.1 mm 1 mps 606 mmHg 94%
    03:00 -6°C° 0.1 mm 2 mps 606 mmHg 93%
    04:00 -6°C° 0.1 mm 2 mps 606 mmHg 93%
    05:00 -6°C° 0.2 mm 2 mps 606 mmHg 92%
    06:00 -6°C° 0.2 mm 2 mps 606 mmHg 91%
    07:00 -6°C° 0.2 mm 2 mps 606 mmHg 89%
    08:00 -5°C° 0.6 mm 2 mps 606 mmHg 88%
    09:00 -5°C° 0.6 mm 3 mps 606 mmHg 86%
    10:00 -5°C° 0.6 mm 3 mps 606 mmHg 84%
    11:00 -5°C° 0.6 mm 3 mps 606 mmHg 84%
    12:00 -4°C° 0.6 mm 3 mps 606 mmHg 83%
    13:00 -4°C° 0.6 mm 3 mps 606 mmHg 83%
    14:00 -4°C° 0.6 mm 3 mps 606 mmHg 84%
    15:00 -4°C° 0.6 mm 3 mps 607 mmHg 86%
    16:00 -4°C° 0.6 mm 3 mps 607 mmHg 88%
    17:00 -4°C° 0.3 mm 2 mps 607 mmHg 90%
    18:00 -4°C° 0.3 mm 2 mps 607 mmHg 92%
    19:00 -5°C° 0.3 mm 2 mps 608 mmHg 95%
    20:00 -5°C° 0.2 mm 2 mps 608 mmHg 95%
    21:00 -5°C° 0.2 mm 2 mps 608 mmHg 95%
    22:00 -3°C° 0.2 mm 1 mps 608 mmHg 96%
    23:00 -3°C° 0.1 mm 1 mps 608 mmHg 96%

    29 September, Saturday

    Time Temperature Precipitation Wind Pressure Humidity
    00:00 -3°C° 0.1 mm 1 mps 608 mmHg 96%
    01:00 -3°C° 0.1 mm 1 mps 608 mmHg 96%
    02:00 -3°C° 0 mm 1 mps 609 mmHg 95%
    03:00 -3°C° 0 mm 1 mps 609 mmHg 95%
    04:00 -3°C° 0 mm 1 mps 609 mmHg 94%
    05:00 -2°C° 0 mm 1 mps 609 mmHg 94%
    06:00 -2°C° 0 mm 1 mps 610 mmHg 93%
    07:00 -2°C° 0 mm 1 mps 610 mmHg 92%
    08:00 0°C° 0 mm 1 mps 610 mmHg 89%
    09:00 0°C° 0 mm 0 mps 611 mmHg 87%
    10:00 +2°C° 0 mm 0 mps 611 mmHg 84%
    11:00 +3°C° 0 mm 0 mps 611 mmHg 82%
    12:00 +5°C° 0 mm 1 mps 611 mmHg 81%
    13:00 +6°C° 0 mm 1 mps 611 mmHg 79%
    14:00 +5°C° 0 mm 1 mps 611 mmHg 80%
    15:00 +5°C° 0 mm 1 mps 611 mmHg 81%
    16:00 +5°C° 0 mm 1 mps 611 mmHg 83%
    17:00 +3°C° 0 mm 1 mps 611 mmHg 85%
    18:00 -1°C° 0 mm 2 mps 610 mmHg 88%
    19:00 -3°C° 0 mm 2 mps 610 mmHg 90%
    20:00 -3°C° 0 mm 2 mps 610 mmHg 89%
    21:00 -4°C° 0 mm 2 mps 610 mmHg 88%
    22:00 -4°C° 0 mm 2 mps 609 mmHg 87%
    23:00 -4°C° 0 mm 2 mps 609 mmHg 86%
    Show more